Home   Weather   Saanich   Past weeks

Flag for Canada Past Weather in Saanich, British Columbia, Canada — Yesterday and Last 2 Weeks

Now
59 °F

Passing clouds.


Feels Like: 57 °F
Forecast: 49 / 62 °F
Wind: 9 mph from West

Location: Victoria Int. Airportb. C.

Current Time: Sep 27, 2016 at 3:28:16 AM

Latest Report: Sep 27, 2016 at 3:00 AM


Visibility: 30 mi

Pressure: 30.12 "Hg

Humidity: 82%

Dew Point: 54 °F

Location of SaanichLocation

Past Weather in Saanich — Graph

°F

Saanich Temperature Yesterday

Maximum temperature yesterday: 68 °F (at 12:00 PM)
Minimum temperature yesterday: 52 °F (at 4:00 AM)
Average temperature yesterday: 59 °F

High & Low Weather Summary for the Past Weeks

 TemperatureHumidityPressure
High73 °F (Sep 12, 2:00 PM)100% (Sep 16, 7:00 AM)30.43 "Hg (Sep 16, 7:00 AM)
Low46 °F (Sep 13, 5:00 AM)25% (Sep 12, 4:00 PM)29.79 "Hg (Sep 17, 10:00 AM)
Average58 °F78%30.09 "Hg
* Reported Sep 12 2:00 AM — Sep 27 2:00 AM, Saanich, Weather by CustomWeather, © 2016

Note: Actual official high and low records may vary slightly from our data, if they occured in-between our weather recording intervals... More about our weather records

Advertising

Saanich Weather History for the Previous 24 Hours

Scroll right to see more
 ConditionsComfort  
Time TempWeatherWind HumidityBarometerVisibility
2:00 AM
Tue, Sep 27
61 °FPartly cloudy.3 mph77%30.10 "Hg30 mi
1:00 AM57 °FPartly cloudy.2 mph88%30.07 "Hg30 mi
12:00 AM61 °FPartly cloudy.6 mph83%30.06 "Hg30 mi
11:00 PM
Mon, Sep 26
63 °FPartly cloudy.9 mph83%30.05 "Hg30 mi
10:00 PM59 °FPassing clouds.5 mph88%30.04 "Hg30 mi
9:00 PM55 °FPassing clouds.6 mph88%30.03 "Hg30 mi
8:00 PM57 °FPartly cloudy.2 mph82%30.02 "Hg20 mi
7:00 PM59 °FBroken clouds.5 mph82%30.01 "Hg20 mi
6:00 PM63 °FPartly sunny.5 mph73%30.00 "Hg20 mi
5:00 PM63 °FPartly sunny.6 mph73%30.01 "Hg20 mi
4:00 PM66 °FPartly sunny.5 mph68%30.02 "Hg20 mi
3:00 PM64 °FPartly sunny.5 mph68%30.03 "Hg20 mi
2:00 PM66 °FPartly sunny.3 mph64%30.05 "Hg20 mi
1:00 PM66 °FPartly sunny.6 mph64%30.07 "Hg20 mi
12:00 PM68 °FScattered clouds.No wind64%30.09 "Hg20 mi
10:00 AM61 °FScattered clouds.No wind77%30.11 "Hg20 mi
9:00 AM57 °FPassing clouds.5 mph88%30.14 "Hg20 mi
8:00 AM54 °FPassing clouds.6 mph94%30.15 "Hg30 mi
7:00 AM52 °FPassing clouds.6 mph94%30.16 "Hg30 mi
6:00 AM52 °FPassing clouds.6 mph94%30.17 "Hg30 mi
5:00 AM52 °FPassing clouds.5 mph94%30.19 "Hg30 mi
4:00 AM52 °FPassing clouds.5 mph94%30.19 "Hg30 mi
3:00 AM54 °FPassing clouds.5 mph94%30.22 "Hg30 mi
Weather by CustomWeather, © 2016

See weather overviewHow to use our weather pages